Weather History for Middletown, OH

Change the Weather History Date:

Sunday, August 4, 2013

  Actual Average (KDAY) Record (KDAY)
Temperature  
Mean Temperature 66 °F 74 °F  
Max Temperature 75 °F 83 °F 98 °F (1930)
Min Temperature 57 °F 64 °F 48 °F (1912)
Degree Days  
Heating Degree Days 0 0  
Month to date heating degree days 0  
Since 1 June heating degree days 22  
Since 1 July heating degree days 0  
Cooling Degree Days 1 9  
Month to date cooling degree days 36  
Year to date cooling degree days 575  
Since 1 June cooling degree days 505  
Growing Degree Days 16 (Base 50)    
Moisture  
Dew Point 60 °F    
Average Humidity 80    
Maximum Humidity 100    
Minimum Humidity 56    
Precipitation  
Precipitation 0.00 in 0.10 in 2.86 in (1959)
Month to date precipitation 0.40  
Year to date precipitation 25.72  
Snow  
Snow 0.00 in 0.00 in 0.00 in ()
Month to date snowfall 0.0  
Since 1 June snowfall 0.0  
Since 1 July snowfall 0.0  
Snow Depth -    
Sea Level Pressure  
Sea Level Pressure 30.13 in    
Wind  
Wind Speed 6 mph (NNE)    
Max Wind Speed 14 mph    
Max Gust Speed 18 mph    
Visibility 10 miles    
Events      
T = Trace of Precipitation, MM = Missing Value Source: NWS Daily Summary

Daily Weather History Graph

Daily Weather History Graph

Search for Another Location

Airport:

Trip Planner

Search our weather history database for the weather conditions in past years. The results will help you decide how hot, cold, wet, or windy it might be!

Date:

Astronomy

Aug. 04, 2013 Rise Set
Actual Time 6:40 AM EDT 8:46 PM EDT
Civil Twilight 6:10 AM EDT 9:16 PM EDT
Nautical Twilight 5:33 AM EDT 9:52 PM EDT
Astronomical Twilight 4:54 AM EDT 10:31 PM EDT
Moon 4:40 AM EDT (8/4) 7:09 PM EDT (8/4)
Length of Visible Light 15h 06m
Length of Day
14h 06m
Waning Crescent, 5% of the Moon is Illuminated
Aug 4
Waning Crescent
Aug 6
New
Aug 14
First Quarter
Aug 20
Full
Aug 28
Last Quarter

Hourly Weather History & Observations

Time (EDT) Temp. Dew Point Humidity Pressure Visibility Wind Dir Wind Speed Gust Speed Precip Events Conditions
12:15 AM 67.6 °F 64.4 °F 89% 30.06 in 10.0 mi North 6.9 mph - N/A   Clear
12:35 AM 67.6 °F 64.8 °F 90% 30.06 in 10.0 mi North 5.8 mph - N/A   Clear
12:55 AM 65.7 °F 63.9 °F 94% 30.07 in 10.0 mi NNE 4.6 mph - N/A   Clear
1:15 AM 67.6 °F 65.3 °F 92% 30.07 in 10.0 mi North 5.8 mph - N/A   Clear
1:35 AM 65.3 °F 62.6 °F 91% 30.07 in 10.0 mi North 4.6 mph - N/A   Clear
1:55 AM 65.3 °F 62.6 °F 91% 30.07 in 10.0 mi North 4.6 mph - N/A   Clear
2:15 AM 63.0 °F 59.9 °F 90% 30.07 in 10.0 mi North 4.6 mph - N/A   Clear
2:35 AM 62.6 °F 59.5 °F 90% 30.07 in 10.0 mi NNE 3.5 mph - N/A   Clear
2:55 AM 62.6 °F 59.0 °F 88% 30.08 in 10.0 mi North 4.6 mph - N/A   Scattered Clouds
3:15 AM 62.6 °F 58.3 °F 86% 30.08 in - NNE 4.6 mph - N/A   Scattered Clouds
3:35 AM 62.2 °F 58.8 °F 89% 30.07 in 10.0 mi NE 4.6 mph - N/A   Mostly Cloudy
3:55 AM 61.5 °F 57.9 °F 88% 30.08 in 10.0 mi NE 3.5 mph - N/A   Mostly Cloudy
4:15 AM 60.6 °F 57.0 °F 88% 30.08 in 10.0 mi Calm Calm - N/A   Scattered Clouds
4:35 AM 60.1 °F 57.0 °F 90% 30.09 in 10.0 mi NNE 4.6 mph - N/A   Scattered Clouds
4:55 AM 59.0 °F 56.3 °F 91% 30.09 in 10.0 mi North 3.5 mph - N/A   Clear
5:15 AM 58.5 °F 56.3 °F 93% 30.10 in 10.0 mi NE 5.8 mph - N/A   Clear
5:35 AM 58.6 °F 56.1 °F 91% 30.10 in 10.0 mi NNE 4.6 mph - N/A   Clear
5:55 AM 57.7 °F 55.8 °F 93% 30.10 in 10.0 mi NNE 4.6 mph - N/A   Clear
6:15 AM 57.7 °F 55.8 °F 93% 30.10 in 10.0 mi NNE 4.6 mph - N/A   Clear
6:35 AM 57.7 °F 55.9 °F 94% 30.10 in 10.0 mi NNE 5.8 mph - N/A   Clear
6:55 AM 57.7 °F 56.5 °F 96% 30.11 in 10.0 mi NNE 5.8 mph - N/A   Clear
7:15 AM 57.7 °F 56.7 °F 96% 30.12 in 10.0 mi NNE 3.5 mph - N/A   Clear
7:35 AM 57.7 °F 57.2 °F 98% 30.13 in 10.0 mi NNE 4.6 mph - N/A   Clear
7:55 AM 59.0 °F 57.4 °F 94% 30.14 in 10.0 mi North 3.5 mph - N/A   Clear
8:15 AM 60.6 °F 58.1 °F 91% 30.15 in 10.0 mi NNE 8.1 mph - N/A   Clear
8:35 AM 62.6 °F 59.9 °F 91% 30.15 in 10.0 mi NNE 6.9 mph - N/A   Clear
8:55 AM 63.9 °F 60.8 °F 90% 30.15 in 10.0 mi NE 6.9 mph - N/A   Clear
9:15 AM 67.6 °F 64.4 °F 89% 30.16 in 10.0 mi NE 5.8 mph - N/A   Clear
9:35 AM 67.6 °F 63.7 °F 87% 30.16 in 10.0 mi NE 8.1 mph - N/A   Clear
9:55 AM 68.0 °F 61.7 °F 80% 30.15 in 10.0 mi NE 8.1 mph - N/A   Clear
10:15 AM 71.6 °F 63.1 °F 75% 30.15 in 10.0 mi NE 10.4 mph - N/A   Clear
10:35 AM 72.7 °F 63.7 °F 73% 30.16 in 10.0 mi NE 9.2 mph - N/A   Clear
10:55 AM 72.7 °F 63.5 °F 73% 30.16 in 10.0 mi NNE 6.9 mph - N/A   Clear
11:15 AM 72.7 °F 63.7 °F 73% 30.16 in 10.0 mi North 9.2 mph - N/A   Clear
11:35 AM 72.7 °F 62.1 °F 69% 30.17 in 10.0 mi North 9.2 mph - N/A   Clear
11:55 AM 72.7 °F 59.7 °F 64% 30.17 in 10.0 mi NNE 11.5 mph 18.4 mph N/A   Clear
12:15 PM 72.7 °F 59.5 °F 63% 30.16 in 10.0 mi North 13.8 mph 18.4 mph N/A   Clear
12:35 PM 73.2 °F 60.4 °F 64% 30.16 in 10.0 mi NNE 13.8 mph 18.4 mph N/A   Clear
12:55 PM 73.8 °F 59.2 °F 60% 30.16 in 10.0 mi NE 11.5 mph - N/A   Clear
1:15 PM 74.3 °F 61.2 °F 63% 30.15 in 10.0 mi NNE 10.4 mph - N/A   Scattered Clouds
1:35 PM 74.3 °F 61.3 °F 64% 30.15 in 10.0 mi NNE 11.5 mph - N/A   Scattered Clouds
1:55 PM 73.8 °F 60.6 °F 63% 30.15 in 10.0 mi North 8.1 mph - N/A   Scattered Clouds
2:15 PM 75.2 °F 60.6 °F 60% 30.15 in 10.0 mi NNE 11.5 mph 17.3 mph N/A   Scattered Clouds
2:35 PM 75.0 °F 61.2 °F 62% 30.15 in 10.0 mi North 6.9 mph - N/A   Scattered Clouds
2:55 PM 75.2 °F 61.0 °F 61% 30.15 in 10.0 mi North 6.9 mph - N/A   Scattered Clouds
3:15 PM 75.2 °F 60.3 °F 60% 30.15 in 10.0 mi North 9.2 mph - N/A   Scattered Clouds
3:35 PM 75.2 °F 61.3 °F 62% 30.15 in 10.0 mi North 6.9 mph - N/A   Scattered Clouds
3:55 PM 75.2 °F 60.4 °F 60% 30.14 in 10.0 mi NNW 10.4 mph - N/A   Scattered Clouds
4:15 PM 73.8 °F 60.1 °F 62% 30.14 in 10.0 mi North 6.9 mph - N/A   Scattered Clouds
4:35 PM 75.2 °F 59.4 °F 58% 30.14 in 10.0 mi North 9.2 mph - N/A   Scattered Clouds
4:55 PM 75.0 °F 61.7 °F 63% 30.14 in 10.0 mi NNE 9.2 mph - N/A   Scattered Clouds
5:15 PM 75.2 °F 60.8 °F 61% 30.14 in 10.0 mi NNE 8.1 mph - N/A   Clear
5:35 PM 75.2 °F 58.6 °F 56% 30.14 in 10.0 mi North 8.1 mph - N/A   Clear
5:55 PM 75.2 °F 60.3 °F 60% 30.13 in 10.0 mi North 5.8 mph - N/A   Clear
6:15 PM 75.2 °F 59.5 °F 58% 30.13 in 10.0 mi North 6.9 mph - N/A   Clear
6:35 PM 75.2 °F 59.2 °F 57% 30.13 in 10.0 mi North 10.4 mph - N/A   Clear
6:55 PM 74.7 °F 59.5 °F 59% 30.12 in 10.0 mi North 9.2 mph - N/A   Clear
7:15 PM 72.7 °F 58.1 °F 60% 30.12 in 10.0 mi North 6.9 mph - N/A   Clear
7:35 PM 72.7 °F 58.3 °F 60% 30.13 in 10.0 mi North 4.6 mph - N/A   Clear
7:55 PM 72.7 °F 59.7 °F 64% 30.13 in 10.0 mi NNE 3.5 mph - N/A   Clear
8:15 PM 72.1 °F 62.1 °F 70% 30.13 in 10.0 mi Calm Calm - N/A   Clear
8:35 PM 67.6 °F 61.3 °F 80% 30.13 in 10.0 mi NNW 3.5 mph - N/A   Clear
8:55 PM 67.1 °F 64.0 °F 90% 30.13 in 10.0 mi NNW 3.5 mph - N/A   Clear
9:15 PM 62.6 °F 61.7 °F 97% 30.14 in 10.0 mi Calm Calm - N/A   Clear
9:35 PM 62.4 °F 61.0 °F 95% 30.14 in 10.0 mi Calm Calm - N/A   Clear
9:55 PM 60.1 °F 59.4 °F 97% 30.15 in 10.0 mi Calm Calm - N/A   Clear
10:15 PM 60.4 °F 59.7 °F 97% 30.14 in 10.0 mi NE 3.5 mph - N/A   Clear
10:35 PM 60.1 °F 59.0 °F 96% 30.14 in 10.0 mi NNE 4.6 mph - N/A   Clear
10:55 PM 60.1 °F 59.0 °F 96% 30.14 in 10.0 mi NNE 3.5 mph - N/A   Clear
11:15 PM 59.4 °F 59.4 °F 100% 30.14 in 10.0 mi Calm Calm - N/A   Clear
11:35 PM 59.0 °F 59.0 °F 100% 30.14 in 10.0 mi Calm Calm - N/A   Clear
11:55 PM 57.7 °F 57.7 °F 100% 30.14 in 10.0 mi Calm Calm - N/A   Clear